Regional Weather Roundup
Issued by NWS

Home | Current Version | Previous Version | Text Only | Print | Product List | Glossary Off
Versions: 1 2 3 4 5 6 7 8 9 10 11 12 13 14 15 16 17 18 19 20 21 22 23 24 25 26 27 28 29 30 31 32 33 34 35 36 37 38 39 40 41 42 43 44 45 46 47 48 49 50

908
ASUS43 KLMK 200510
RWRKY
KENTUCKY REGIONAL WEATHER ROUNDUP
NATIONAL WEATHER SERVICE LOUISVILLE KY
100 AM EDT FRI OCT 20 2017

NOTE "FAIR" INDICATES FEW OR NO CLOUDS BELOW 12,000 FEET
WITH NO SIGNIFICANT WEATHER AND/OR OBSTRUCTIONS TO VISIBILITY.

KYZ001>023-026-027-061>063-070>075-200600-
WESTERN AND SOUTH CENTRAL KENTUCKY

CITY           SKY/WX    TMP DP  RH WIND       PRES   REMARKS
PADUCAH        FAIR      50  46  86 CALM      30.21S
HENDERSON      FAIR      52  50  93 CALM      30.22S
OWENSBORO      FAIR      52  50  93 CALM      30.23S
HOPKINSVILLE   FAIR      53  50  88 CALM      30.23R
BOWLING GREEN  FAIR      51  50  96 CALM      30.25S
GLASGOW        FAIR      48  48 100 CALM      30.25F
$$

KYZ024-025-028>034-038-045-046-053-200600-
NORTH CENTRAL KENTUCKY

CITY           SKY/WX    TMP DP  RH WIND       PRES   REMARKS
LOUISVILLE/SDF FAIR      57  52  83 SE6       30.23F
LOUISVILLE/LOU FAIR      53  52  96 CALM      30.24F
FORT KNOX      FAIR      50  50  99 CALM      30.23S
$$

KYZ035>037-039>044-047>052-055>060-089>105-200600-
NORTHEAST KENTUCKY

CITY           SKY/WX    TMP DP  RH WIND       PRES   REMARKS
LEXINGTON      FAIR      50  46  86 S5        30.26S
COVINGTON      FAIR      57  52  83 CALM      30.23S
FRANKFORT      FAIR      50  46  86 CALM      30.25S
$$

KYZ054-064>069-076>088-106>120-200600-
SOUTHEAST KENTUCKY

CITY           SKY/WX    TMP DP  RH WIND       PRES   REMARKS
JACKSON        FAIR      54  47  77 CALM      30.27F
LONDON         FAIR      47  45  93 CALM      30.28S FOG
SOMERSET       FAIR      46  46 100 CALM      30.29S
MIDDLESBORO    FAIR      46  46 100 CALM      30.31S
MONTICELLO     FAIR      43  42  97 NE8       30.29S
$$





USA.gov is the U.S. government's official web portal to all federal, state and local government web resources and services.